<?xml version="1.0" encoding="UTF-8" standalone="no" ?>
<gpx xmlns="http://www.topografix.com/GPX/1/1" xmlns:xsi="http://www.w3.org/2001/XMLSchema-instance" xsi:schemaLocation="http://www.topografix.com/GPX/1/1 http://www.topografix.com/GPX/1/1/gpx.xsd" version="1.1" creator="VisuGPX - https://www.visugpx.com">
  <metadata>
    <name>Aravis, séjour du RCMF</name>
    <desc><![CDATA[Aravis, séjour du RCMF]]></desc>
  </metadata>
  <trk>
    <name><![CDATA[Signal du Sac]]></name>
    <trkseg>
      <trkpt lat="45.83682" lon="6.5084">
        <ele>988.1</ele>
        <time>2003-02-06T13:08:28Z</time>
      </trkpt>
      <trkpt lat="45.83837" lon="6.50891">
        <ele>1018.4</ele>
        <time>2003-02-06T13:08:28Z</time>
      </trkpt>
      <trkpt lat="45.83901" lon="6.50986">
        <ele>1018.9</ele>
        <time>2003-02-06T13:08:28Z</time>
      </trkpt>
      <trkpt lat="45.83821" lon="6.50967">
        <ele>1044.4</ele>
        <time>2003-02-06T13:08:28Z</time>
      </trkpt>
      <trkpt lat="45.83866" lon="6.51092">
        <ele>1055.8</ele>
        <time>2003-02-06T13:08:28Z</time>
      </trkpt>
      <trkpt lat="45.83774" lon="6.51021">
        <ele>1073.4</ele>
        <time>2003-02-06T13:08:28Z</time>
      </trkpt>
      <trkpt lat="45.83724" lon="6.51024">
        <ele>1075.8</ele>
        <time>2003-02-06T13:08:28Z</time>
      </trkpt>
      <trkpt lat="45.83777" lon="6.51054">
        <ele>1085.1</ele>
        <time>2003-02-06T13:08:28Z</time>
      </trkpt>
      <trkpt lat="45.83717" lon="6.51094">
        <ele>1096.7</ele>
        <time>2003-02-06T13:08:28Z</time>
      </trkpt>
      <trkpt lat="45.83797" lon="6.51119">
        <ele>1099.3</ele>
        <time>2003-02-06T13:08:28Z</time>
      </trkpt>
      <trkpt lat="45.83706" lon="6.51158">
        <ele>1119.6</ele>
        <time>2003-02-06T13:08:28Z</time>
      </trkpt>
      <trkpt lat="45.83817" lon="6.51314">
        <ele>1139.3</ele>
        <time>2003-02-06T13:08:28Z</time>
      </trkpt>
      <trkpt lat="45.83862" lon="6.5144">
        <ele>1154.5</ele>
        <time>2003-02-06T13:08:28Z</time>
      </trkpt>
      <trkpt lat="45.83767" lon="6.51343">
        <ele>1178.8</ele>
        <time>2003-02-06T13:08:28Z</time>
      </trkpt>
      <trkpt lat="45.83845" lon="6.51523">
        <ele>1220.8</ele>
        <time>2003-02-06T13:08:28Z</time>
      </trkpt>
      <trkpt lat="45.83929" lon="6.51568">
        <ele>1201.3</ele>
        <time>2003-02-06T13:08:28Z</time>
      </trkpt>
      <trkpt lat="45.84" lon="6.51721">
        <ele>1208.9</ele>
        <time>2003-02-06T13:08:28Z</time>
      </trkpt>
      <trkpt lat="45.84045" lon="6.51725">
        <ele>1209.3</ele>
        <time>2003-02-06T13:08:28Z</time>
      </trkpt>
      <trkpt lat="45.84104" lon="6.51832">
        <ele>1239</ele>
        <time>2003-02-06T13:08:28Z</time>
      </trkpt>
      <trkpt lat="45.84149" lon="6.51836">
        <ele>1222.5</ele>
        <time>2003-02-06T13:08:28Z</time>
      </trkpt>
      <trkpt lat="45.84189" lon="6.51987">
        <ele>1261.5</ele>
        <time>2003-02-06T13:08:28Z</time>
      </trkpt>
      <trkpt lat="45.84225" lon="6.51983">
        <ele>1255.9</ele>
        <time>2003-02-06T13:08:28Z</time>
      </trkpt>
      <trkpt lat="45.84298" lon="6.5206">
        <ele>1262.2</ele>
        <time>2003-02-06T13:08:28Z</time>
      </trkpt>
      <trkpt lat="45.84325" lon="6.52191">
        <ele>1280.6</ele>
        <time>2003-02-06T13:08:28Z</time>
      </trkpt>
      <trkpt lat="45.8427" lon="6.52103">
        <ele>1289.6</ele>
        <time>2003-02-06T13:08:28Z</time>
      </trkpt>
      <trkpt lat="45.84209" lon="6.5204">
        <ele>1283.6</ele>
        <time>2003-02-06T13:08:28Z</time>
      </trkpt>
      <trkpt lat="45.84163" lon="6.52075">
        <ele>1293.7</ele>
        <time>2003-02-06T13:08:28Z</time>
      </trkpt>
      <trkpt lat="45.84126" lon="6.51982">
        <ele>1282.9</ele>
        <time>2003-02-06T13:08:28Z</time>
      </trkpt>
      <trkpt lat="45.84021" lon="6.51884">
        <ele>1280.4</ele>
        <time>2003-02-06T13:08:28Z</time>
      </trkpt>
      <trkpt lat="45.83953" lon="6.51911">
        <ele>1273</ele>
        <time>2003-02-06T13:08:28Z</time>
      </trkpt>
      <trkpt lat="45.8392" lon="6.51818">
        <ele>1272</ele>
        <time>2003-02-06T13:08:28Z</time>
      </trkpt>
      <trkpt lat="45.83836" lon="6.5178">
        <ele>1291.4</ele>
        <time>2003-02-06T13:08:28Z</time>
      </trkpt>
      <trkpt lat="45.83733" lon="6.51649">
        <ele>1305.3</ele>
        <time>2003-02-06T13:08:28Z</time>
      </trkpt>
      <trkpt lat="45.83678" lon="6.51542">
        <ele>1306.5</ele>
        <time>2003-02-06T13:08:28Z</time>
      </trkpt>
      <trkpt lat="45.83621" lon="6.51499">
        <ele>1316.7</ele>
        <time>2003-02-06T13:08:28Z</time>
      </trkpt>
      <trkpt lat="45.83571" lon="6.51502">
        <ele>1334</ele>
        <time>2003-02-06T13:08:28Z</time>
      </trkpt>
      <trkpt lat="45.83626" lon="6.51603">
        <ele>1343.2</ele>
        <time>2003-02-06T13:08:28Z</time>
      </trkpt>
      <trkpt lat="45.83708" lon="6.5206">
        <ele>1404.5</ele>
        <time>2003-02-06T13:08:28Z</time>
      </trkpt>
      <trkpt lat="45.83525" lon="6.51775">
        <ele>1439.5</ele>
        <time>2003-02-06T13:08:28Z</time>
      </trkpt>
      <trkpt lat="45.83472" lon="6.51746">
        <ele>1449.9</ele>
        <time>2003-02-06T13:08:28Z</time>
      </trkpt>
      <trkpt lat="45.83495" lon="6.52102">
        <ele>1505</ele>
        <time>2003-02-06T13:08:28Z</time>
      </trkpt>
      <trkpt lat="45.83465" lon="6.52312">
        <ele>1528.9</ele>
        <time>2003-02-06T13:08:28Z</time>
      </trkpt>
      <trkpt lat="45.83427" lon="6.52367">
        <ele>1537.9</ele>
        <time>2003-02-06T13:08:28Z</time>
      </trkpt>
      <trkpt lat="45.83227" lon="6.52416">
        <ele>1582</ele>
        <time>2003-02-06T13:08:28Z</time>
      </trkpt>
      <trkpt lat="45.83326" lon="6.52534">
        <ele>1575.6</ele>
        <time>2003-02-06T13:08:28Z</time>
      </trkpt>
      <trkpt lat="45.83401" lon="6.52559">
        <ele>1580.3</ele>
        <time>2003-02-06T13:08:28Z</time>
      </trkpt>
      <trkpt lat="45.83508" lon="6.52728">
        <ele>1589.8</ele>
        <time>2003-02-06T13:08:28Z</time>
      </trkpt>
      <trkpt lat="45.83625" lon="6.52853">
        <ele>1599.1</ele>
        <time>2003-02-06T13:08:28Z</time>
      </trkpt>
      <trkpt lat="45.83689" lon="6.53064">
        <ele>1630.8</ele>
        <time>2003-02-06T13:08:28Z</time>
      </trkpt>
      <trkpt lat="45.83786" lon="6.53245">
        <ele>1660.4</ele>
        <time>2003-02-06T13:08:28Z</time>
      </trkpt>
      <trkpt lat="45.83952" lon="6.53374">
        <ele>1670.6</ele>
        <time>2003-02-06T13:08:28Z</time>
      </trkpt>
      <trkpt lat="45.8405" lon="6.53407">
        <ele>1668.8</ele>
        <time>2003-02-06T13:08:28Z</time>
      </trkpt>
      <trkpt lat="45.84104" lon="6.5346">
        <ele>1668.4</ele>
        <time>2003-02-06T13:08:28Z</time>
      </trkpt>
      <trkpt lat="45.84192" lon="6.53521">
        <ele>1668.4</ele>
        <time>2003-02-06T13:08:28Z</time>
      </trkpt>
      <trkpt lat="45.84298" lon="6.53465">
        <ele>1636.1</ele>
        <time>2003-02-06T13:08:28Z</time>
      </trkpt>
      <trkpt lat="45.84294" lon="6.53339">
        <ele>1613.6</ele>
        <time>2003-02-06T13:08:28Z</time>
      </trkpt>
      <trkpt lat="45.84307" lon="6.5316">
        <ele>1562</ele>
        <time>2003-02-06T13:08:28Z</time>
      </trkpt>
      <trkpt lat="45.84343" lon="6.52924">
        <ele>1491</ele>
        <time>2003-02-06T13:08:28Z</time>
      </trkpt>
      <trkpt lat="45.84348" lon="6.52779">
        <ele>1443</ele>
        <time>2003-02-06T13:08:28Z</time>
      </trkpt>
      <trkpt lat="45.84321" lon="6.52606">
        <ele>1393.4</ele>
        <time>2003-02-06T13:08:28Z</time>
      </trkpt>
      <trkpt lat="45.84358" lon="6.52445">
        <ele>1345.5</ele>
        <time>2003-02-06T13:08:28Z</time>
      </trkpt>
      <trkpt lat="45.84379" lon="6.52321">
        <ele>1311.7</ele>
        <time>2003-02-06T13:08:28Z</time>
      </trkpt>
      <trkpt lat="45.84354" lon="6.52193">
        <ele>1285.1</ele>
        <time>2003-02-06T13:08:28Z</time>
      </trkpt>
      <trkpt lat="45.84325" lon="6.52191">
        <ele>1280.6</ele>
        <time>2003-02-06T13:08:28Z</time>
      </trkpt>
      <trkpt lat="45.84294" lon="6.52063">
        <ele>1265.2</ele>
        <time>2003-02-06T13:08:28Z</time>
      </trkpt>
      <trkpt lat="45.84222" lon="6.51983">
        <ele>1256.7</ele>
        <time>2003-02-06T13:08:28Z</time>
      </trkpt>
      <trkpt lat="45.84191" lon="6.51987">
        <ele>1261.6</ele>
        <time>2003-02-06T13:08:28Z</time>
      </trkpt>
      <trkpt lat="45.84145" lon="6.51829">
        <ele>1224.9</ele>
        <time>2003-02-06T13:08:28Z</time>
      </trkpt>
      <trkpt lat="45.84097" lon="6.51832">
        <ele>1240.2</ele>
        <time>2003-02-06T13:08:28Z</time>
      </trkpt>
      <trkpt lat="45.84045" lon="6.51722">
        <ele>1207.9</ele>
        <time>2003-02-06T13:08:28Z</time>
      </trkpt>
      <trkpt lat="45.83998" lon="6.51718">
        <ele>1209.8</ele>
        <time>2003-02-06T13:08:28Z</time>
      </trkpt>
      <trkpt lat="45.83929" lon="6.51568">
        <ele>1201.3</ele>
        <time>2003-02-06T13:08:28Z</time>
      </trkpt>
      <trkpt lat="45.83843" lon="6.51523">
        <ele>1222</ele>
        <time>2003-02-06T13:08:28Z</time>
      </trkpt>
      <trkpt lat="45.83762" lon="6.51342">
        <ele>1182.7</ele>
        <time>2003-02-06T13:08:28Z</time>
      </trkpt>
      <trkpt lat="45.83862" lon="6.51431">
        <ele>1151.5</ele>
        <time>2003-02-06T13:08:28Z</time>
      </trkpt>
      <trkpt lat="45.83811" lon="6.51311">
        <ele>1141.3</ele>
        <time>2003-02-06T13:08:28Z</time>
      </trkpt>
      <trkpt lat="45.83699" lon="6.51164">
        <ele>1123.6</ele>
        <time>2003-02-06T13:08:28Z</time>
      </trkpt>
      <trkpt lat="45.83797" lon="6.51119">
        <ele>1099.3</ele>
        <time>2003-02-06T13:08:28Z</time>
      </trkpt>
      <trkpt lat="45.83717" lon="6.51097">
        <ele>1097.9</ele>
        <time>2003-02-06T13:08:28Z</time>
      </trkpt>
      <trkpt lat="45.83775" lon="6.51057">
        <ele>1086.5</ele>
        <time>2003-02-06T13:08:28Z</time>
      </trkpt>
      <trkpt lat="45.83724" lon="6.51027">
        <ele>1076.8</ele>
        <time>2003-02-06T13:08:28Z</time>
      </trkpt>
      <trkpt lat="45.83774" lon="6.51027">
        <ele>1074.5</ele>
        <time>2003-02-06T13:08:28Z</time>
      </trkpt>
      <trkpt lat="45.83866" lon="6.51083">
        <ele>1052.8</ele>
        <time>2003-02-06T13:08:28Z</time>
      </trkpt>
      <trkpt lat="45.83814" lon="6.50969">
        <ele>1047.3</ele>
        <time>2003-02-06T13:08:28Z</time>
      </trkpt>
      <trkpt lat="45.83899" lon="6.50985">
        <ele>1020.4</ele>
        <time>2003-02-06T13:08:28Z</time>
      </trkpt>
      <trkpt lat="45.83837" lon="6.50887">
        <ele>1017.3</ele>
        <time>2003-02-06T13:08:28Z</time>
      </trkpt>
      <trkpt lat="45.83679" lon="6.50843">
        <ele>988.1</ele>
        <time>2003-02-06T13:08:28Z</time>
      </trkpt>
      <trkpt lat="45.83677" lon="6.50846">
        <ele>988</ele>
        <time>2003-02-06T13:08:28Z</time>
      </trkpt>
    </trkseg>
  </trk>
</gpx>